DW0231 Weather Reports


Display with metric or nautical units.
time (UTC)temp
F
wind
direction
speed
MPH
gust
MPH
rain 1hr
in
rain 24hr
in
rain mn
in
humidity
%
barometer
mb
20260831103012 58 351 0.0 0.0 0.00 0.00 0.00 70 1010.7
20260831101625 57 351 0.0 0.0 0.00 0.00 0.00 66 1010.5
20260831100035 57 351 0.0 0.0 0.00 0.00 0.00 65 1010.3
20260831094505 57 351 0.0 0.0 0.00 0.00 0.00 66 1010.0
20260831093040 57 351 0.0 0.0 0.00 0.00 0.00 68 1009.9
20260831091518 58 351 0.0 0.0 0.00 0.00 0.00 69 1009.7
20260831090126 58 351 0.0 0.0 0.00 0.00 0.00 70 1009.6
20260831084633 58 351 0.0 0.0 0.00 0.00 0.00 71 1009.7
20260831083017 59 351 0.0 0.0 0.00 0.00 0.00 71 1009.7
20260831081507 59 351 0.0 0.0 0.00 0.00 0.00 72 1009.8
20260831080125 59 350 0.0 0.0 0.00 0.00 0.00 70 1009.9
20260831074535 59 350 0.0 0.0 0.00 0.00 0.00 70 1009.9
20260831073014 59 350 0.0 0.0 0.00 0.00 0.00 70 1010.0
20260831071624 59 351 0.0 0.0 0.00 0.00 0.00 71 1010.1
20260831070050 59 351 0.0 0.0 0.00 0.00 0.17 71 1010.1
20260831064517 60 351 0.0 0.0 0.00 0.00 0.17 72 1010.1
20260831063130 60 351 0.0 0.0 0.00 0.00 0.17 72 1010.0
20260831061521 60 351 0.0 0.0 0.00 0.00 0.17 71 1010.0
20260831060011 61 350 0.0 0.0 0.00 0.00 0.17 72 1010.0
20260831054631 62 351 0.0 0.0 0.00 0.00 0.17 72 1010.0
20260831053058 62 350 0.0 0.0 0.00 0.00 0.17 71 1010.0
20260831051526 62 350 0.0 0.0 0.00 0.00 0.17 70 1010.0
20260831050003 62 350 0.0 0.0 0.00 0.00 0.17 69 1009.8
20260831044611 62 351 0.0 0.0 0.00 0.00 0.17 69 1009.7
20260831043017 63 351 0.0 0.0 0.00 0.00 0.17 69 1009.5
20260831041513 63 350 0.0 0.0 0.00 0.00 0.17 68 1009.6
20260831040135 64 351 0.0 0.0 0.00 0.00 0.17 67 1009.6
20260831034559 64 350 0.0 0.0 0.00 0.00 0.17 66 1009.6
20260831033008 65 351 0.0 0.0 0.00 0.00 0.17 65 1009.3
20260831031609 65 351 0.0 0.0 0.00 0.00 0.17 64 1009.1
20260831030027 66 351 0.0 0.0 0.00 0.00 0.17 63 1009.0
20260831024508 67 350 0.0 0.0 0.00 0.00 0.17 62 1008.8
20260831023111 69 351 0.0 0.0 0.00 0.00 0.17 61 1008.7
20260831021550 70 350 0.0 0.0 0.00 0.00 0.17 59 1008.5
20260831020012 72 351 0.0 0.0 0.00 0.00 0.17 55 1008.4
20260831014633 74 350 0.0 0.0 0.00 0.00 0.17 52 1008.3
20260831013107 75 351 0.0 0.0 0.00 0.00 0.17 47 1008.4
20260831011526 76 350 1.0 0.0 0.00 0.00 0.17 43 1008.4
20260831010012 76 44 1.0 0.0 0.00 0.00 0.17 42 1008.5
20260831004503 77 44 0.0 0.0 0.00 0.00 0.17 45 1008.5
20260831003036 77 44 0.0 0.0 0.00 0.00 0.17 45 1008.7
20260831001521 77 44 0.0 0.0 0.00 0.00 0.17 45 1008.5
20260831000124 78 44 1.0 0.0 0.00 0.00 0.17 44 1008.4
20260830234602 77 72 0.0 0.0 0.00 0.00 0.17 46 1008.6
20260830233015 74 72 3.0 0.0 0.00 0.00 0.17 50 1008.7
20260830231614 74 138 1.0 0.0 0.00 0.00 0.17 62 1008.9
20260830230028 74 75 0.0 0.0 0.00 0.00 0.17 58 1008.7
20260830224511 74 76 0.0 0.0 0.00 0.00 0.17 56 1008.8
20260830223006 74 76 1.0 0.0 0.00 0.00 0.17 57 1008.9
20260830221636 73 76 1.0 0.0 0.00 0.00 0.17 62 1008.9
20260830220054 72 75 0.0 0.0 0.00 0.00 0.17 61 1009.1
20260830214539 72 76 0.0 0.0 0.00 0.00 0.17 63 1009.1
20260830213033 72 75 0.0 0.0 0.00 0.00 0.17 64 1009.2
20260830211514 74 15 0.0 0.0 0.00 0.00 0.17 62 1009.4
20260830210002 75 15 0.0 0.0 0.00 0.00 0.16 53 1009.6
20260830204550 76 360 3.0 0.0 0.00 0.00 0.16 51 1009.5
20260830203026 76 40 3.0 0.0 0.00 0.00 0.16 47 1010.0
20260830201511 77 355 3.0 0.0 0.00 0.00 0.16 49 1009.9
20260830200018 80 35 2.0 0.0 0.00 0.00 0.16 46 1009.8
20260830194510 80 213 2.0 0.0 0.00 0.00 0.16 45 1010.0
20260830193121 79 10 2.0 0.0 0.00 0.00 0.16 43 1009.8
20260830191609 78 129 1.0 0.0 0.00 0.00 0.16 51 1010.0
20260830190049 77 130 1.0 0.0 0.00 0.00 0.16 51 1010.3
20260830184524 76 129 1.0 0.0 0.00 0.00 0.16 53 1010.5
20260830183025 75 128 1.0 0.0 0.00 0.00 0.16 54 1010.7
20260830181516 74 128 0.0 0.0 0.00 0.00 0.16 56 1010.8
20260830180118 73 128 0.0 0.0 0.00 0.00 0.16 57 1010.9
20260830174539 72 128 1.0 0.0 0.00 0.00 0.16 60 1010.8
20260830173015 71 128 0.0 0.0 0.00 0.00 0.16 63 1011.0
20260830171633 69 128 2.0 0.0 0.00 0.00 0.16 62 1010.8
20260830170113 68 127 1.0 0.0 0.00 0.00 0.16 71 1010.8
20260830164519 66 126 0.0 0.0 0.00 0.00 0.16 80 1010.6
20260830163112 65 126 2.0 0.0 0.00 0.00 0.16 83 1010.7
20260830161514 64 82 0.0 0.0 0.00 0.00 0.16 86 1010.5
20260830160120 63 82 0.0 0.0 0.00 0.00 0.16 89 1010.4
20260830154539 62 82 0.0 0.0 0.00 0.00 0.16 89 1010.3
20260830153031 61 82 0.0 0.0 0.00 0.00 0.16 90 1010.5
20260830151514 61 82 0.0 0.0 0.00 0.00 0.16 90 1010.5
20260830150130 60 82 0.0 0.0 0.00 0.00 0.16 90 1010.6
20260830144614 60 82 0.0 0.0 0.00 0.00 0.16 90 1010.7
20260830143108 59 82 0.0 0.0 0.00 0.00 0.16 89 1010.6
20260830141546 58 82 0.0 0.0 0.00 0.00 0.16 89 1010.4
20260830140036 58 82 0.0 0.0 0.00 0.00 0.16 89 1010.4
20260830134536 59 82 0.0 0.0 0.00 0.00 0.16 88 1009.9
20260830133023 59 82 0.0 0.0 0.00 0.00 0.16 88 1010.1
20260830131633 59 82 0.0 0.0 0.00 0.00 0.16 88 1010.0
20260830130109 59 82 0.0 0.0 0.00 0.00 0.16 87 1010.0
20260830124546 59 82 0.0 0.0 0.00 0.00 0.16 87 1010.0
20260830123039 59 82 0.0 0.0 0.00 0.00 0.15 86 1009.6
20260830121535 59 82 0.0 0.0 0.00 0.00 0.15 85 1009.6
20260830120016 59 82 1.0 0.0 0.00 0.00 0.15 83 1009.3
20260830114617 60 82 2.0 0.0 0.00 0.00 0.15 81 1010.5
20260830113038 60 172 0.0 0.0 0.00 0.00 0.00 79 1010.4
20260830111540 60 18 0.0 0.0 0.00 0.00 0.00 79 1008.5
20260830110011 59 18 0.0 0.0 0.00 0.00 0.00 78 1009.0
20260830104629 59 19 0.0 0.0 0.00 0.00 0.00 78 1009.1